Weather History for KEZS - April, 2013

Change the Weather History Date:

Tuesday, April 30, 2013

  Actual Average (KGRB) Record (KGRB)
Temperature  
Mean Temperature 72 °F 50 °F  
Max Temperature 87 °F 61 °F 84 °F (1901)
Min Temperature 57 °F 39 °F 12 °F (1956)
Degree Days  
Heating Degree Days 0 15  
Month to date heating degree days 637  
Since 1 July heating degree days 7537  
Cooling Degree Days 7 0  
Month to date cooling degree days 2  
Year to date cooling degree days 2  
Growing Degree Days 22 (Base 50)    
Moisture  
Dew Point 52 °F    
Average Humidity 53    
Maximum Humidity 82    
Minimum Humidity 25    
Precipitation  
Precipitation 0.00 in 0.09 in 1.36 in (1997)
Month to date precipitation 2.63  
Year to date precipitation 6.72  
Snow  
Snow 0.00 in 0.00 in 0.90 in (1996)
Month to date snowfall 2.9  
Since 1 July snowfall 51.2  
Snow Depth -    
Sea Level Pressure  
Sea Level Pressure 29.69 in    
Wind  
Wind Speed 7 mph (South)    
Max Wind Speed 20 mph    
Max Gust Speed 28 mph    
Visibility 9 miles    
Events Thunderstorm    
T = Trace of Precipitation, MM = Missing Value Source: NWS Daily Summary

Daily Weather History Graph

Daily Weather History Graph

Search for Another Location

Airport or City:

Trip Planner

Search our weather history database for the weather conditions in past years. The results will help you decide how hot, cold, wet, or windy it might be!

Date:

Astronomy

Apr. 30, 2013 Rise Set
Actual Time 5:45 AM CDT 7:58 PM CDT
Civil Twilight 5:13 AM CDT 8:30 PM CDT
Nautical Twilight 4:33 AM CDT 9:10 PM CDT
Astronomical Twilight 3:49 AM CDT 9:55 PM CDT
Moon 12:24 AM CDT (4/30) 10:11 AM CDT (4/30)
Length of Visible Light 15h 17m
Length of Day
14h 13m
Waning Gibbous, 70% of the Moon is Illuminated
Apr 30
Waning Gibbous
May 2
Last Quarter
May 9
New
May 17
First Quarter
May 24
Full

Hourly Weather History & Observations

Time (CDT) Temp. Heat Index Dew Point Humidity Pressure Visibility Wind Dir Wind Speed Gust Speed Precip Events Conditions
12:15 AM 60.8 °F - 50.0 °F 68% 29.73 in 10.0 mi SSE 5.8 mph - N/A   Clear
12:35 AM 60.8 °F - 50.0 °F 68% 29.72 in 10.0 mi SSE 3.5 mph - N/A   Clear
12:55 AM 59.0 °F - 50.0 °F 72% 29.72 in 10.0 mi Calm Calm - N/A   Scattered Clouds
1:15 AM 57.2 °F - 50.0 °F 77% 29.71 in 10.0 mi SE 3.5 mph - N/A   Scattered Clouds
1:35 AM 59.0 °F - 50.0 °F 72% 29.71 in 10.0 mi SSE 3.5 mph - N/A   Scattered Clouds
1:55 AM 59.0 °F - 50.0 °F 72% 29.71 in 10.0 mi SSE 4.6 mph - N/A   Clear
2:15 AM 59.0 °F - 50.0 °F 72% 29.70 in 10.0 mi SSE 3.5 mph - N/A   Scattered Clouds
2:35 AM 59.0 °F - 51.8 °F 77% 29.69 in 10.0 mi South 4.6 mph - N/A   Mostly Cloudy
2:55 AM 59.0 °F - 51.8 °F 77% 29.69 in 10.0 mi South 4.6 mph - N/A   Overcast
3:15 AM 59.0 °F - 51.8 °F 77% 29.68 in 10.0 mi SSE 8.1 mph - N/A Thunderstorm Mostly Cloudy
3:35 AM 59.0 °F - 51.8 °F 77% 29.68 in 10.0 mi SSE 6.9 mph - N/A   Scattered Clouds
3:55 AM 59.0 °F - 51.8 °F 77% 29.68 in 10.0 mi South 4.6 mph - N/A   Scattered Clouds
4:15 AM 59.0 °F - 51.8 °F 77% 29.69 in 10.0 mi South 4.6 mph - N/A   Mostly Cloudy
4:35 AM 59.0 °F - 51.8 °F 77% 29.68 in 10.0 mi South 4.6 mph - N/A   Scattered Clouds
4:55 AM 59.0 °F - 51.8 °F 77% 29.68 in 10.0 mi South 3.5 mph - N/A   Mostly Cloudy
5:15 AM 59.0 °F - 51.8 °F 77% 29.67 in 10.0 mi South 5.8 mph - N/A Thunderstorm Overcast
5:35 AM 59.0 °F - 53.6 °F 82% 29.67 in 10.0 mi South 3.5 mph - N/A Thunderstorm Overcast
5:55 AM 59.0 °F - 53.6 °F 82% 29.66 in 10.0 mi Calm Calm - N/A   Mostly Cloudy
6:15 AM 59.0 °F - 53.6 °F 82% 29.65 in 10.0 mi SSE 4.6 mph - N/A   Scattered Clouds
6:35 AM 59.0 °F - 53.6 °F 82% 29.67 in 10.0 mi SSE 3.5 mph - N/A   Mostly Cloudy
6:55 AM 59.0 °F - 53.6 °F 82% 29.67 in 10.0 mi SSE 3.5 mph - N/A Thunderstorm Overcast
7:15 AM 60.8 °F - 53.6 °F 77% 29.66 in 10.0 mi South 3.5 mph - N/A Thunderstorm Thunderstorm
7:35 AM 64.4 °F - 55.4 °F 73% 29.67 in 10.0 mi SSW 8.1 mph - N/A Thunderstorm Overcast
7:55 AM 64.4 °F - 55.4 °F 73% 29.66 in 10.0 mi SSE 4.6 mph - N/A   Overcast
8:15 AM 64.4 °F - 55.4 °F 73% 29.66 in 10.0 mi SSE 6.9 mph - N/A   Scattered Clouds
8:35 AM 64.4 °F - 55.4 °F 73% 29.65 in 10.0 mi SSE 5.8 mph - N/A   Mostly Cloudy
8:55 AM 64.4 °F - 55.4 °F 73% 29.65 in 10.0 mi ENE 8.1 mph - N/A   Scattered Clouds
9:15 AM 64.4 °F - 55.4 °F 73% 29.65 in 10.0 mi ENE 6.9 mph - N/A   Clear
9:35 AM 69.8 °F - 55.4 °F 60% 29.65 in 10.0 mi SE 9.2 mph - N/A   Clear
9:55 AM 71.6 °F - 55.4 °F 57% 29.65 in 10.0 mi SE 5.8 mph - N/A   Clear
10:15 AM 73.4 °F - 53.6 °F 50% 29.66 in 10.0 mi South 9.2 mph - N/A   Clear
10:35 AM 73.4 °F - 53.6 °F 50% 29.66 in 10.0 mi South 10.4 mph - N/A   Clear
10:55 AM 73.4 °F - 55.4 °F 53% 29.65 in 10.0 mi SSE 10.4 mph 16.1 mph N/A   Clear
11:15 AM 73.4 °F - 55.4 °F 53% 29.65 in 10.0 mi SSW 8.1 mph 17.3 mph N/A   Clear
11:35 AM 73.4 °F - 57.2 °F 57% 29.65 in 10.0 mi South 11.5 mph 20.7 mph N/A   Clear
11:55 AM 73.4 °F - 57.2 °F 57% 29.64 in 10.0 mi SSE 13.8 mph 21.9 mph N/A   Scattered Clouds
12:15 PM 75.2 °F - 57.2 °F 53% 29.64 in 10.0 mi South 12.7 mph 23.0 mph N/A   Clear
12:35 PM 77.0 °F - 57.2 °F 50% 29.64 in 10.0 mi South 12.7 mph 20.7 mph N/A   Clear
12:55 PM 78.8 °F - 57.2 °F 47% 29.63 in 10.0 mi South 11.5 mph 19.6 mph N/A   Clear
1:15 PM 80.6 °F 80.5 °F 55.4 °F 42% 29.63 in 5.0 mi SSW 9.2 mph 20.7 mph N/A   Haze
1:35 PM 82.4 °F 81.4 °F 53.6 °F 37% 29.63 in 7.0 mi South 11.5 mph 20.7 mph N/A   Clear
1:55 PM 82.4 °F 81.4 °F 53.6 °F 37% 29.63 in 7.0 mi South 12.7 mph 23.0 mph N/A   Clear
2:15 PM 82.4 °F 81.7 °F 55.4 °F 39% 29.63 in 7.0 mi South 8.1 mph 19.6 mph N/A   Clear
2:35 PM 84.2 °F 82.8 °F 53.6 °F 35% 29.64 in 7.0 mi SSW 10.4 mph 19.6 mph N/A   Clear
2:55 PM 86.0 °F - 51.8 °F 31% 29.64 in 7.0 mi SSW 10.4 mph 19.6 mph N/A   Clear
3:15 PM 86.0 °F - 51.8 °F 31% 29.64 in 7.0 mi SSW 10.4 mph 25.3 mph N/A   Clear
3:35 PM 86.0 °F - 51.8 °F 31% 29.64 in 7.0 mi SW 13.8 mph 25.3 mph N/A   Clear
3:55 PM 87.8 °F - 50.0 °F 27% 29.65 in 7.0 mi WSW 16.1 mph 24.2 mph N/A   Clear
4:15 PM 87.8 °F - 50.0 °F 27% 29.66 in 7.0 mi WSW 15.0 mph 25.3 mph N/A   Clear
4:35 PM 86.0 °F - 48.2 °F 27% 29.66 in 7.0 mi SW 17.3 mph 26.5 mph N/A   Clear
4:55 PM 87.8 °F - 48.2 °F 25% 29.67 in 10.0 mi WSW 19.6 mph 24.2 mph N/A   Clear
5:15 PM 87.8 °F - 48.2 °F 25% 29.67 in 7.0 mi WSW 12.7 mph 27.6 mph N/A   Clear
5:35 PM 86.0 °F - 50.0 °F 29% 29.68 in 7.0 mi WSW 10.4 mph 17.3 mph N/A   Clear
5:55 PM 86.0 °F - 48.2 °F 27% 29.69 in 7.0 mi WSW 10.4 mph 20.7 mph N/A   Clear
6:15 PM 86.0 °F - 48.2 °F 27% 29.70 in 7.0 mi WSW 11.5 mph 19.6 mph N/A   Scattered Clouds
6:35 PM 86.0 °F - 48.2 °F 27% 29.70 in 7.0 mi WSW 15.0 mph 18.4 mph N/A   Clear
6:55 PM 82.4 °F - 48.2 °F 30% 29.71 in 7.0 mi WSW 10.4 mph 21.9 mph N/A   Clear
7:15 PM 82.4 °F - 50.0 °F 32% 29.72 in 7.0 mi West 10.4 mph - N/A   Clear
7:35 PM 82.4 °F - 50.0 °F 32% 29.73 in 7.0 mi WSW 8.1 mph - N/A   Clear
7:55 PM 80.6 °F - 50.0 °F 34% 29.74 in 7.0 mi WSW 6.9 mph - N/A   Scattered Clouds
8:15 PM 80.6 °F - 50.0 °F 34% 29.75 in 10.0 mi WSW 5.8 mph - N/A   Overcast
8:35 PM 80.6 °F - 50.0 °F 34% 29.75 in 10.0 mi SW 4.6 mph - N/A   Overcast
8:55 PM 78.8 °F - 50.0 °F 36% 29.76 in 10.0 mi Calm Calm - N/A   Overcast
9:15 PM 77.0 °F - 51.8 °F 41% 29.77 in 7.0 mi SSE 4.6 mph - N/A   Mostly Cloudy
9:35 PM 75.2 °F - 51.8 °F 44% 29.77 in 10.0 mi SSE 4.6 mph - N/A   Mostly Cloudy
9:55 PM 75.2 °F - 51.8 °F 44% 29.77 in 10.0 mi South 3.5 mph - N/A   Overcast
10:15 PM 75.2 °F - 51.8 °F 44% 29.78 in 10.0 mi South 3.5 mph - N/A   Mostly Cloudy
10:35 PM 75.2 °F - 51.8 °F 44% 29.78 in 10.0 mi South 4.6 mph - N/A   Scattered Clouds
10:55 PM 73.4 °F - 51.8 °F 47% 29.80 in 10.0 mi West 8.1 mph - N/A   Clear
11:15 PM 71.6 °F - 44.6 °F 38% 29.83 in 10.0 mi WNW 9.2 mph - N/A   Clear
11:35 PM 71.6 °F - 41.0 °F 33% 29.84 in 10.0 mi NNW 8.1 mph 23.0 mph N/A   Clear
11:55 PM 68.0 °F - 37.4 °F 33% 29.86 in 10.0 mi NW 9.2 mph 19.6 mph N/A   Clear